Estación de Monte Patria - Chilecito
Ultimos registro cada 15 minutos 35
| N° | Estación | Fecha / Hora | Temperatura | Humedad | Lluvia | Velocidad | Dirección | Radiación | Presion |
| 35 | Monte Patria - Chilecito | 10-05-2026 08:30 | 18,9 | 15,2 | 0 | 0 | 303 | 55,6 | 935,7 |
| 34 | Monte Patria - Chilecito | 10-05-2026 08:15 | 15,9 | 16,8 | 0 | 0 | 303 | 161,9 | 935,7 |
| 33 | Monte Patria - Chilecito | 10-05-2026 08:00 | 12,6 | 17,6 | 0 | 0 | 303 | 10,6 | 935,5 |
| 32 | Monte Patria - Chilecito | 10-05-2026 07:45 | 12,9 | 16,9 | 0 | 0 | 303 | 6,9 | 935,4 |
| 31 | Monte Patria - Chilecito | 10-05-2026 07:30 | 12,3 | 17,4 | 0 | 0 | 303 | 4,4 | 935,3 |
| 30 | Monte Patria - Chilecito | 10-05-2026 07:15 | 12,4 | 17,7 | 0 | 0 | 303 | 0,6 | 935,4 |
| 29 | Monte Patria - Chilecito | 10-05-2026 07:00 | 12,2 | 18,3 | 0 | 0 | 303 | 0,6 | 935,3 |
| 28 | Monte Patria - Chilecito | 10-05-2026 06:45 | 12,3 | 18,9 | 0 | 0 | 303 | 0,6 | 935,3 |
| 27 | Monte Patria - Chilecito | 10-05-2026 06:30 | 11,3 | 19,4 | 0 | 0 | 303 | 0,6 | 935,2 |
| 26 | Monte Patria - Chilecito | 10-05-2026 06:15 | 11,8 | 19,5 | 0 | 0 | 303 | 0,6 | 935,2 |
| 25 | Monte Patria - Chilecito | 10-05-2026 06:00 | 12 | 19,1 | 0 | 0 | 303 | 0,6 | 935,1 |
| 24 | Monte Patria - Chilecito | 10-05-2026 05:45 | 12 | 19,3 | 0 | 0 | 303 | 0,6 | 935,1 |
| 23 | Monte Patria - Chilecito | 10-05-2026 05:30 | 11,1 | 20,1 | 0 | 0 | 303 | 0,6 | 935,1 |
| 22 | Monte Patria - Chilecito | 10-05-2026 05:15 | 10,9 | 20,9 | 0 | 0 | 303 | 0,6 | 935,2 |
| 21 | Monte Patria - Chilecito | 10-05-2026 05:00 | 11,5 | 21,1 | 0 | 0 | 303 | 0,6 | 935,2 |
| 20 | Monte Patria - Chilecito | 10-05-2026 04:45 | 11,3 | 21,7 | 0 | 0 | 303 | 0,6 | 935,2 |
| 19 | Monte Patria - Chilecito | 10-05-2026 04:30 | 10,9 | 23,4 | 0 | 0 | 303 | 0,6 | 935,4 |
| 18 | Monte Patria - Chilecito | 10-05-2026 04:15 | 11,2 | 22,6 | 0 | 0 | 305 | 0,6 | 935,2 |
| 17 | Monte Patria - Chilecito | 10-05-2026 04:00 | 10,5 | 25,5 | 0 | 0 | 305 | 0,6 | 935,4 |
| 16 | Monte Patria - Chilecito | 10-05-2026 03:45 | 10,6 | 25,8 | 0 | 0 | 305 | 0,6 | 935,4 |
| 15 | Monte Patria - Chilecito | 10-05-2026 03:30 | 10 | 27,4 | 0 | 0 | 305 | 0,6 | 935,4 |
| 14 | Monte Patria - Chilecito | 10-05-2026 03:15 | 10,5 | 28,8 | 0 | 0 | 305 | 0,6 | 935,5 |
| 13 | Monte Patria - Chilecito | 10-05-2026 03:00 | 11 | 27,9 | 0 | 0 | 305 | 0,6 | 935,6 |
| 12 | Monte Patria - Chilecito | 10-05-2026 02:45 | 10,6 | 29,2 | 0 | 0 | 305 | 0,6 | 935,7 |
| 11 | Monte Patria - Chilecito | 10-05-2026 02:30 | 10,7 | 31,1 | 0 | 0 | 305 | 0,6 | 935,8 |
| 10 | Monte Patria - Chilecito | 10-05-2026 02:15 | 10,4 | 31,1 | 0 | 0 | 305 | 0,6 | 935,9 |
| 9 | Monte Patria - Chilecito | 10-05-2026 02:00 | 10,8 | 30,3 | 0 | 0 | 305 | 0,6 | 935,7 |
| 8 | Monte Patria - Chilecito | 10-05-2026 01:45 | 10,6 | 33,6 | 0 | 0 | 305 | 0,6 | 935,7 |
| 7 | Monte Patria - Chilecito | 10-05-2026 01:30 | 10,9 | 33,6 | 0 | 0 | 305 | 0,6 | 935,8 |
| 6 | Monte Patria - Chilecito | 10-05-2026 01:15 | 11,1 | 34 | 0 | 0 | 303 | 0,6 | 935,5 |
| 5 | Monte Patria - Chilecito | 10-05-2026 01:00 | 11,6 | 34,2 | 0 | 0 | 303 | 0,6 | 935,9 |
| 4 | Monte Patria - Chilecito | 10-05-2026 00:45 | 9,3 | 42,4 | 0 | 0 | 303 | 0,6 | 935,9 |
| 3 | Monte Patria - Chilecito | 10-05-2026 00:30 | 9 | 47,7 | 0 | 0 | 303 | 0,6 | 936 |
| 2 | Monte Patria - Chilecito | 10-05-2026 00:15 | 9 | 52,9 | 0 | 0 | 303 | 0,6 | 936 |
| 1 | Monte Patria - Chilecito | 10-05-2026 00:00 | 9,2 | 50,1 | 0 | 0 | 303 | 0,6 | 936,2 |